Location: Beekmeers
(50.8953°N, 3.6968°E)
Time: 09:58:28
(UTC+00:00)

YAOGAN 10 - Visible Passes

Search period start: 06 October 2024 00:00
Search period end: 16 October 2024 00:00
Orbit: 618 x 620 km, 97.9° (Epoch: 06 October)

Date Brightness Start Highest point End Pass type
(mag) Time Alt. Az. Time Alt. Az. Time Alt. Az.
06 Oct ? 18:48:30 10° SSW 18:52:03 25° W 18:55:38 10° NW visible
07 Oct ? 19:06:13 10° SW 19:09:08 18° W 19:12:04 10° NW visible
08 Oct ? 17:45:12 10° SSE 17:49:32 87° ENE 17:53:53 10° NNW visible
08 Oct ? 19:24:27 10° WSW 19:26:14 12° W 19:28:03 10° WNW visible
09 Oct ? 18:02:09 10° S 18:06:26 65° WSW 18:10:46 10° NNW visible
10 Oct ? 18:19:15 10° S 18:23:23 45° W 18:27:34 10° NNW visible
11 Oct ? 18:36:31 10° SSW 18:40:21 31° W 18:44:15 10° NNW visible
12 Oct ? 18:53:59 10° SW 18:57:23 22° W 19:00:48 10° NW visible
13 Oct ? 17:33:36 10° SSE 17:37:53 67° ENE 17:42:12 10° N visible
13 Oct ? 19:11:47 10° SW 19:14:26 16° W 19:17:06 10° NW visible
14 Oct ? 17:50:25 10° SSE 17:54:44 85° WSW 17:59:06 10° NNW visible
14 Oct ? 19:30:20 10° WSW 19:31:31 11° W 19:32:42 10° WNW visible
15 Oct ? 05:34:05 10° ENE 05:35:54 12° E 05:37:44 10° ESE visible
15 Oct ? 18:07:21 10° S 18:11:37 58° W 18:15:55 10° NNW visible
